Wetbulb
71.37 71.65 70.90 69.54 69.15 68.72 69.01 69.21 69.05 68.70 68.46 68.06 68.10 68.33 68.32 68.88 68.62 68.66 68.95 68.74 68.78 68.46 67.26 67.21 67.07 66.19 65.41 64.28 64.04 65.43 67.78 67.56
70.84 71.22 71.45 71.96 72.01 68.25 67.94 68.00 67.58 67.48 67.35 66.43 66.47 66.46 66.96 67.48 67.23 67.84 68.38 68.39 68.02 67.62 66.53 66.08 65.34 64.97 64.04 63.58 63.40 64.50 67.35 66.79
69.89 70.41 70.82 70.49 70.36 71.15 68.66 67.58 67.13 66.75 67.14 65.81 65.15 67.46 67.19 65.79 66.22 66.96 67.54 67.42 67.36 66.44 65.99 65.08 64.39 63.69 63.47 63.09 63.46 65.99 66.05 65.88
69.02 69.90 69.44 68.43 68.25 69.46 70.99 69.57 68.69 68.22 68.40 67.37 67.65 67.24 67.12 66.53 66.32 66.17 66.95 67.00 66.54 65.81 65.24 64.22 64.74 65.87 64.42 62.13 64.84 64.70 64.89 64.36
67.95 68.83 70.02 68.38 67.38 67.64 68.27 67.69 67.76 67.55 67.43 67.65 66.94 66.63 66.71 66.89 65.48 66.79 67.23 67.02 66.60 65.61 64.62 64.02 65.31 64.89 63.79 63.76 63.61 63.85 63.68 63.88
67.42 68.19 68.28 68.08 67.33 66.66 66.36 66.35 66.65 65.68 65.52 66.08 66.76 66.01 65.97 65.62 64.24 65.09 65.43 67.22 66.04 64.96 62.23 63.03 64.15 63.96 63.35 62.80 62.89 62.71 62.89 62.73
66.43 67.23 67.58 66.66 65.72 65.43 65.67 65.14 66.38 65.84 64.27 64.65 65.21 66.15 65.34 65.45 64.89 64.86 65.28 65.05 64.79 62.22 62.30 61.72 62.98 62.60 62.66 62.37 62.08 62.00 62.17 62.11
65.89 66.24 66.31 65.21 64.97 64.27 64.71 65.25 65.67 66.84 64.54 63.72 63.88 64.39 64.33 64.45 64.38 64.97 63.83 64.95 63.42 62.04 62.01 60.73 61.96 62.38 61.90 62.15 61.72 61.57 61.83 62.10
64.58 65.27 65.79 64.77 64.70 64.05 63.74 64.11 64.09 64.19 64.68 64.02 63.79 63.65 63.70 63.98 64.55 63.34 63.97 64.38 62.68 61.34 61.38 61.43 61.22 61.48 61.27 61.15 61.16 61.33 61.55 61.66
64.33 64.29 64.46 63.62 63.86 64.37 63.42 63.17 63.07 62.55 62.84 62.76 63.11 63.42 63.64 63.32 63.42 63.19 64.06 62.87 62.06 60.52 60.56 60.38 60.08 59.86 60.49 60.07 60.49 60.68 61.47 61.72
63.37 64.35 64.35 62.59 63.23 63.65 62.91 63.41 62.89 62.60 62.44 61.97 62.18 62.66 63.02 62.58 64.08 63.01 63.44 62.18 61.83 59.24 59.85 60.23 58.92 59.26 59.68 59.77 60.12 60.44 60.89 60.92
63.63 63.98 64.19 62.74 62.88 63.07 63.00 63.51 62.70 63.58 62.93 62.26 61.84 61.81 61.91 62.11 62.79 62.66 61.36 59.75 59.51 59.58 58.71 59.93 59.72 59.55 57.80 58.31 59.56 60.03 60.61 60.56
62.69 62.81 62.72 61.57 61.23 60.46 60.25 59.62 61.42 61.76 62.09 62.12 62.01 61.48 61.75 61.84 61.89 60.15 59.79 58.80 58.64 59.88 58.56 58.13 57.60 59.66 57.36 57.12 57.90 58.82 59.49 59.86
61.18 62.03 61.16 61.50 61.11 60.73 62.52 61.95 61.56 62.13 62.54 62.61 62.89 61.59 61.40 61.67 60.95 59.27 58.36 57.20 57.13 57.92 58.75 57.50 57.32 58.76 56.96 56.44 53.32 55.50 57.46 58.60
59.43 60.47 60.44 61.37 62.03 61.20 59.95 61.24 61.00 60.76 61.42 61.95 61.74 61.35 61.08 61.05 60.68 59.81 58.47 56.83 55.26 56.04 58.90 58.24 55.71 57.91 59.22 57.21 52.93 52.68 54.65 57.29
59.10 60.05 60.06 59.77 60.02 59.51 58.42 58.84 58.43 60.23 60.76 61.86 60.81 60.85 60.77 59.49 58.56 59.12 58.34 56.94 55.18 55.88 58.80 59.34 58.30 56.09 58.04 57.07 58.96 57.42 54.52 52.74
58.66 60.57 59.74 57.89 59.00 58.98 58.08 59.14 60.20 60.32 60.36 60.31 60.56 60.13 58.92 57.79 57.25 56.83 56.87 56.57 56.44 55.37 57.27 58.89 59.10 57.67 57.45 56.48 56.41 56.89 56.89 55.22
59.10 59.86 57.50 57.40 59.70 59.32 59.13 58.30 58.43 58.86 58.93 58.88 58.64 57.92 56.46 56.42 55.08 55.03 55.69 55.79 55.91 56.52 57.03 59.10 58.68 58.47 58.75 57.92 56.53 56.01 55.71 56.62
57.34 57.91 56.13 57.54 59.63 60.10 59.61 58.37 57.86 59.11 58.68 58.12 56.10 55.95 54.55 54.24 54.21 54.97 55.89 56.35 56.16 56.01 56.88 57.82 58.56 58.19 58.61 58.11 59.15 58.61 59.13 58.39
56.34 55.85 56.07 57.00 58.80 59.32 59.61 59.54 58.88 60.02 58.65 58.69 56.69 56.54 54.92 55.44 54.83 56.41 57.20 56.78 55.78 55.90 55.80 56.76 58.22 57.06 56.41 57.39 58.65 59.10 59.60 59.23
MSLP
1009.28 1009.61 1010.27 1010.80 1011.16 1011.41 1011.76 1012.03 1012.32 1012.49 1012.81 1013.14 1013.73 1014.09 1014.62 1014.70 1014.87 1015.21 1015.60 1015.94 1017.65 1018.15 1018.30 1018.51 1018.96 1019.24 1019.52 1019.85 1020.18 1020.47 1020.47 1020.76
1009.31 1009.54 1009.88 1010.47 1011.02 1011.28 1011.65 1011.91 1012.20 1012.60 1012.86 1013.19 1013.43 1013.30 1014.05 1014.71 1014.95 1015.77 1014.92 1016.61 1017.48 1018.13 1018.42 1018.76 1019.27 1019.59 1019.87 1020.17 1020.58 1020.99 1020.83 1021.16
1009.33 1009.69 1009.87 1010.21 1010.64 1011.10 1011.58 1011.85 1012.19 1012.58 1012.96 1013.23 1013.56 1013.94 1014.26 1014.74 1014.85 1015.80 1015.14 1016.34 1017.38 1018.04 1018.43 1018.93 1019.43 1019.95 1020.33 1020.66 1020.80 1020.97 1021.33 1021.54
1009.21 1009.59 1009.91 1010.08 1010.47 1010.86 1011.33 1011.79 1012.05 1012.33 1012.86 1013.34 1013.79 1014.18 1014.04 1014.24 1015.10 1015.54 1015.48 1016.36 1017.22 1017.62 1018.10 1019.02 1019.49 1019.98 1020.62 1020.99 1020.79 1021.29 1021.63 1022.11
1008.82 1009.34 1009.63 1010.07 1010.48 1010.77 1011.21 1011.68 1011.96 1012.29 1012.63 1013.18 1013.77 1014.11 1014.40 1014.70 1015.32 1015.50 1016.13 1016.85 1017.25 1017.90 1018.53 1019.01 1019.50 1019.91 1020.49 1020.78 1021.15 1021.52 1021.69 1022.07
1008.46 1009.03 1009.48 1009.83 1010.26 1010.69 1010.96 1011.52 1011.82 1012.19 1012.58 1012.99 1013.46 1013.99 1014.31 1014.74 1015.27 1015.41 1016.17 1016.62 1017.16 1017.82 1018.59 1019.16 1019.58 1020.08 1020.61 1020.97 1021.28 1021.52 1021.68 1022.10
1007.94 1008.52 1009.29 1009.56 1010.07 1010.63 1010.90 1011.52 1011.63 1012.02 1012.57 1012.96 1013.40 1013.61 1014.14 1014.67 1014.96 1015.43 1016.01 1016.61 1017.29 1017.96 1018.34 1019.15 1019.74 1020.22 1020.76 1021.04 1021.35 1021.67 1021.98 1022.37
1007.19 1007.95 1008.75 1009.59 1009.97 1010.33 1010.75 1011.21 1011.42 1011.71 1012.23 1012.68 1013.15 1013.54 1013.90 1014.27 1014.58 1015.16 1015.87 1016.40 1017.34 1017.41 1018.01 1018.92 1019.66 1020.14 1020.78 1021.11 1021.44 1021.83 1022.19 1022.60
1006.25 1007.34 1008.25 1009.05 1009.68 1010.14 1010.56 1010.95 1011.32 1011.61 1011.87 1012.32 1012.87 1013.25 1013.66 1014.15 1014.44 1015.06 1015.33 1016.26 1017.02 1017.43 1018.29 1018.62 1019.59 1020.18 1020.71 1021.30 1021.62 1022.09 1022.42 1022.82
1005.84 1006.79 1007.68 1008.53 1009.14 1009.79 1010.26 1010.74 1011.04 1011.37 1011.80 1012.18 1012.51 1012.87 1013.19 1013.66 1014.15 1014.76 1015.12 1016.00 1016.76 1017.14 1017.99 1018.51 1019.47 1020.12 1020.72 1021.33 1021.69 1022.19 1022.58 1022.90
1005.21 1006.13 1007.04 1008.05 1008.76 1009.33 1009.95 1010.44 1010.76 1011.07 1011.46 1011.78 1012.18 1012.53 1012.71 1013.10 1013.54 1014.19 1014.79 1015.71 1016.35 1016.95 1017.66 1018.30 1019.17 1020.02 1020.71 1021.38 1021.64 1022.05 1022.57 1023.02
1004.55 1005.38 1006.35 1007.54 1008.35 1009.04 1009.66 1010.06 1010.28 1010.52 1010.96 1011.30 1011.77 1012.15 1012.49 1012.57 1013.09 1013.77 1014.52 1015.44 1016.03 1016.66 1017.44 1018.25 1018.86 1019.68 1020.72 1021.40 1021.94 1022.20 1022.57 1022.93
1004.06 1004.86 1005.90 1007.02 1007.78 1008.65 1009.21 1009.53 1009.83 1010.19 1010.57 1010.83 1011.21 1011.71 1011.92 1012.48 1012.24 1013.34 1014.45 1015.10 1015.41 1015.96 1017.25 1018.09 1019.03 1019.68 1020.66 1021.70 1022.18 1022.47 1022.88 1023.00
1003.90 1004.56 1005.39 1006.63 1007.35 1008.07 1008.44 1009.25 1009.56 1009.72 1010.17 1010.35 1010.60 1010.96 1011.46 1011.73 1012.02 1012.86 1013.82 1015.04 1015.60 1015.87 1016.66 1017.80 1018.53 1019.43 1019.63 1020.73 1021.38 1022.59 1022.83 1023.12
1003.63 1004.08 1004.83 1005.69 1006.68 1007.56 1008.34 1009.02 1009.36 1009.55 1009.70 1009.73 1009.90 1010.22 1010.51 1010.95 1011.57 1012.33 1012.97 1014.27 1014.99 1015.50 1016.20 1016.76 1017.50 1019.01 1019.24 1019.24 1020.26 1020.62 1021.81 1022.64
1003.78 1004.11 1004.67 1005.59 1006.36 1006.97 1007.71 1008.23 1008.41 1008.77 1009.04 1009.22 1009.43 1009.63 1009.85 1010.15 1010.89 1011.59 1012.28 1013.49 1014.41 1015.12 1015.59 1016.16 1016.90 1017.92 1018.89 1019.43 1019.37 1019.68 1020.43 1021.53
1003.57 1004.03 1004.59 1005.49 1006.03 1006.60 1007.33 1007.87 1008.09 1008.24 1008.60 1008.85 1009.03 1009.41 1009.65 1009.86 1010.49 1011.23 1011.98 1012.82 1013.67 1014.54 1015.40 1015.88 1016.46 1017.14 1017.77 1018.77 1019.38 1019.67 1019.91 1020.03
1003.31 1003.62 1004.67 1005.29 1005.92 1006.36 1006.81 1007.47 1007.75 1007.96 1008.28 1008.44 1008.64 1008.94 1009.47 1009.71 1010.37 1010.89 1011.71 1012.36 1013.18 1014.04 1014.74 1015.41 1015.98 1016.67 1017.30 1018.11 1018.32 1018.62 1019.22 1019.63
1003.37 1003.87 1004.60 1005.31 1005.88 1006.32 1006.69 1007.45 1007.71 1007.54 1007.86 1007.99 1008.25 1008.74 1009.23 1009.69 1010.27 1010.90 1011.48 1012.13 1012.84 1013.70 1014.48 1015.16 1015.71 1016.39 1016.95 1017.68 1018.00 1018.39 1018.92 1019.26
1003.31 1003.93 1004.56 1005.29 1005.90 1006.17 1006.56 1007.14 1007.26 1007.36 1007.70 1007.69 1007.96 1008.25 1008.90 1009.48 1010.18 1010.70 1011.36 1011.92 1012.77 1013.69 1014.45 1014.91 1015.62 1016.31 1016.95 1017.67 1018.00 1018.52 1018.91 1019.14
Wind_Speed
11 13 13 11 11 12 11 12 14 11 14 15 17 17 17 18 18 14 14 18 15 16 15 16 16 15 16 15 16 10 12 9
9 10 12 12 12 11 12 14 11 14 16 14 15 20 17 15 14 13 20 17 17 16 15 15 13 14 15 15 14 10 11 10
9 10 12 12 9 10 11 13 16 16 16 16 14 10 13 17 14 14 21 21 20 18 17 15 15 14 14 14 12 6 9 6
10 11 11 11 8 8 9 10 10 12 13 16 10 10 11 13 11 11 21 20 21 20 19 17 15 10 8 10 6 9 7 7
12 12 12 11 9 5 3 4 6 8 14 13 11 8 9 8 4 7 8 16 11 12 14 9 12 10 9 8 9 9 7 6
13 13 11 11 7 5 5 4 6 6 10 14 10 8 10 9 6 7 6 8 11 12 7 10 12 11 11 10 10 8 7 6
15 14 12 9 9 5 6 5 6 7 9 11 9 10 10 9 10 7 8 8 11 9 12 9 11 11 10 11 10 10 10 7
16 15 14 11 9 9 6 6 6 9 9 10 12 10 9 11 10 11 8 9 8 11 13 10 10 10 10 10 10 9 11 10
18 17 15 14 12 9 7 6 6 5 7 12 13 11 11 12 9 9 10 10 11 9 12 12 9 9 11 9 9 10 9 11
17 14 17 15 12 10 7 7 6 6 6 8 14 14 14 13 11 9 10 10 10 11 12 11 10 9 9 9 8 8 10 10
18 18 18 16 11 8 8 10 7 6 7 8 12 13 14 13 12 10 14 10 12 11 12 12 11 9 9 8 7 8 9 9
17 15 17 15 9 7 6 7 8 7 7 8 11 8 13 12 11 11 12 10 10 13 12 12 12 11 9 7 6 6 7 8
18 18 17 12 9 7 7 7 6 6 7 9 11 10 8 12 8 10 11 12 14 16 13 15 10 11 10 6 5 4 6 6
16 17 18 13 10 7 6 5 4 6 7 10 13 12 13 12 9 13 14 11 12 16 16 12 8 12 9 8 6 4 6 7
16 18 19 15 14 9 5 5 3 5 7 6 10 13 14 15 16 14 15 12 12 15 16 16 11 12 13 6 6 5 7 6
14 16 17 14 13 11 10 8 8 5 6 6 6 11 12 12 13 16 16 13 14 13 15 14 14 14 11 3 2 6 6 6
14 16 16 14 15 12 9 10 5 4 4 8 8 9 10 12 14 13 15 12 15 16 16 14 13 13 11 7 5 4 4 3
14 16 14 13 15 14 14 11 8 6 6 6 5 6 8 12 13 13 14 13 16 15 16 17 15 12 11 9 7 6 6 3
12 14 12 12 14 13 11 10 11 10 9 5 8 6 7 10 12 13 11 14 15 14 15 14 15 13 13 9 7 5 4 3
12 13 11 12 13 12 9 10 7 6 7 6 7 7 9 12 12 13 13 14 12 11 8 10 12 9 11 8 6 4 4 3
Wind_Direction
171 170 171 166 175 172 166 167 177 165 145 141 146 151 155 147 146 140 134 128 147 144 142 133 132 125 117 111 108 118 135 135
180 174 171 180 185 178 175 169 163 155 151 155 154 152 150 135 131 161 131 144 150 149 142 132 131 118 115 110 105 125 135 137
186 183 181 181 180 186 182 164 164 160 158 166 163 159 156 151 160 178 144 152 149 153 139 133 124 120 117 116 136 142 143 142
193 193 186 177 177 178 196 178 177 171 174 175 171 171 161 157 170 178 157 152 152 151 138 133 144 147 136 131 147 142 147 144
190 194 192 178 181 166 165 173 175 179 176 177 179 170 164 158 161 169 161 144 151 144 138 145 158 157 156 155 144 151 148 150
193 195 190 181 174 169 158 171 174 184 181 178 175 179 179 175 173 168 171 158 154 160 148 151 156 155 157 150 153 159 154 154
200 189 193 173 169 168 166 183 179 172 178 184 183 186 185 176 184 175 168 154 162 165 153 154 157 156 159 158 157 154 155 154
193 191 183 181 181 174 173 174 188 181 174 183 180 187 178 186 183 179 162 155 166 167 158 147 163 161 162 164 160 156 165 158
192 184 178 184 183 178 171 180 173 171 185 180 188 180 177 185 183 172 166 164 161 155 161 144 158 166 164 163 158 159 169 161
184 176 175 180 175 179 168 175 172 170 174 180 188 191 183 183 188 179 160 157 162 161 163 153 155 166 162 162 162 165 170 166
181 178 178 178 172 165 165 180 181 178 181 180 192 187 194 184 187 177 163 162 170 159 160 162 156 164 163 164 160 172 170 177
178 176 175 170 161 159 168 192 194 188 190 189 186 193 191 188 191 173 163 162 168 163 158 162 162 158 149 151 164 165 178 188
177 171 169 162 155 167 189 199 187 186 193 183 186 195 197 200 164 156 161 172 174 163 155 154 144 152 137 144 140 150 193 194
176 172 165 169 169 170 182 180 190 191 199 195 202 200 195 193 178 167 161 165 166 161 162 156 137 165 162 162 152 171 211 210
179 171 167 168 175 162 127 166 149 183 198 206 210 209 203 200 185 180 160 165 167 167 166 169 152 173 171 163 155 186 164 191
179 168 165 168 166 171 176 197 196 186 202 204 197 201 198 179 178 176 168 168 168 175 172 173 157 164 173 193 163 138 176 174
175 173 168 169 177 170 173 201 192 175 190 199 193 187 183 173 165 172 168 167 171 169 173 172 170 162 172 163 154 146 147 162
182 172 173 174 179 176 185 203 210 203 210 208 191 184 171 169 164 165 166 165 168 169 169 169 168 167 172 173 167 170 172 168
184 176 168 179 183 186 190 204 219 217 212 200 167 170 166 162 160 161 166 166 164 163 167 167 169 169 172 175 164 158 155 137
178 177 167 169 179 179 180 202 215 224 207 188 177 169 162 155 158 159 159 152 151 159 162 162 167 160 159 170 156 148 145 144